Regional Weather Roundup
Issued by NWS Sioux Falls, SD

Home | Current Version | Previous Version | Graphics & Text | Print | Product List | Glossary Off
Versions: 1 2 3 4 5 6 7 8 9 10 11 12 13 14 15 16 17 18 19 20 21 22 23 24 25 26 27 28 29 30 31 32 33 34 35 36 37 38 39 40 41 42 43 44 45 46 47 48 49 50

000
ASUS43 KFSD 191902
RWRFSD

WEATHER ROUNDUP FOR SE SOUTH DAKOTA/SW MINNESOTA/NW IOWA
NATIONAL WEATHER SERVICE SIOUX FALLS SD
100 PM CST FRI DEC 19 2014

NOTE: "FAIR" INDICATES FEW OR NO CLOUDS BELOW 12,000 FEET WITH NO
SIGNIFICANT WEATHER AND OR OBSTRUCTIONS TO VISIBILITY.


SDZ038>040-050-052>070-192000-
SOUTHEAST SOUTH DAKOTA

CITY           SKY/WX    TMP DP  RH WIND       PRES   REMARKS
CHAMBERLAIN    NOT AVBL
HURON          CLOUDY    29  28  96 MISG      30.05F FOG
MADISON        CLOUDY    27  27 100 S17       30.06F FOG     WCI  14
MITCHELL       CLOUDY    31  28  89 S16       30.07F FOG     WCI  20
SIOUX FALLS    CLOUDY    30  27  88 S16       30.11F WCI  19
WINNER         FAIR      34  24  67 S7        29.98F WCI  28
YANKTON        CLOUDY    30  27  86 S13       30.12F WCI  20
$$

MNZ071-072-080-081-089-090-097-098-192000-
SOUTHWEST MINNESOTA

CITY           SKY/WX    TMP DP  RH WIND       PRES   REMARKS
FAIRMONT       CLOUDY    30  23  74 S13       30.17F WCI  20
JACKSON        CLOUDY    32  30  93 S10       30.15F WCI  24
LUVERNE        CLOUDY    32  30  93 S16       30.12F FOG     WCI  21
MARSHALL       CLOUDY    30  27  86 S13       30.11F WCI  20
MONTEVIDEO     CLOUDY    30  28  93 SW13      30.11F FOG     WCI  20
PIPESTONE      CLOUDY    28  28 100 SW7       30.08F FOG     WCI  21
REDWOOD FALLS  CLOUDY    33  28  81 S13       30.14F HAZE    WCI  24
TRACY          CLOUDY    31  29  91 S12       30.11F FOG     WCI  22
WINDOM         CLOUDY    32  28  86 S7        30.13F FOG     WCI  26
WORTHINGTON    CLOUDY    30  27  86 S16       30.13F WCI  19
$$

IAZ001>003-012>014-020>022-031-032-NEZ013-014-SDZ071-192000-
NORTHWEST IOWA

CITY           SKY/WX    TMP DP  RH WIND       PRES   REMARKS
DENISON        CLOUDY    34  30  86 S12       30.16F FOG     WCI  25
ESTHERVILLE    CLOUDY    31  28  89 S14       30.15F FOG     WCI  21
SIOUX CITY     CLOUDY    34  28  79 S13       30.16F WCI  25
SPENCER        CLOUDY    34  28  79 S12       30.15F WCI  25
$$

ABBREVIATIONS USED IN REMARKS
   TC - TEMPERATURE IN CELSIUS
  WCI - WIND CHILL INDEX
   HX - HEAT INDEX
  VSB - VISIBILITY




USA.gov is the U.S. government's official web portal to all federal, state and local government web resources and services.